Haines, AK

12:38 AM AKDT on August 24, 2017 (GMT -0800)
Haines

Weather History for PAHN - February, 2013

Change the Weather History Date:

Tuesday, February 12, 2013

  Actual Average Record
Temperature  
Mean Temperature 30 °F -  
Max Temperature 35 °F 31 °F 50 °F (1980)
Min Temperature 25 °F 23 °F -6 °F (1975)
Degree Days  
Heating Degree Days 35    
Moisture  
Dew Point 23 °F    
Average Humidity 76    
Maximum Humidity 96    
Minimum Humidity 48    
Precipitation  
Precipitation 0.00 in - - ()
Sea Level Pressure  
Sea Level Pressure 29.86 in    
Wind  
Wind Speed 8 mph (WNW)    
Max Wind Speed 15 mph    
Max Gust Speed -    
Visibility 10 miles    
Events      
Averages and records for this station are not official NWS values.
T = Trace of Precipitation, MM = Missing Value Source: NWS Daily Summary

Daily Weather History Graph

Daily Weather History Graph

Search for Another Location

Airport or City:

Trip Planner

Search our weather history database for the weather conditions in past years. The results will help you decide how hot, cold, wet, or windy it might be!

Date:

Astronomy

Feb. 12, 2013 Rise Set
Actual Time 7:43 AM AKST 4:49 PM AKST
Civil Twilight 7:00 AM AKST 5:32 PM AKST
Nautical Twilight 6:12 AM AKST 6:20 PM AKST
Astronomical Twilight 5:25 AM AKST 7:07 PM AKST
Moon 7:53 AM AKST (2/12) 8:58 PM AKST (2/12)
Length of Visible Light 10h 32m
Length of Day
9h 05m
Waxing Crescent, 8% of the Moon is Illuminated
Feb 12
Waxing Crescent
Feb 17
First Quarter
Feb 25
Full
Mar 4
Last Quarter
Mar 11
New

Hourly Weather History & Observations

Time (AKST) Temp. Windchill Dew Point Humidity Pressure Visibility Wind Dir Wind Speed Gust Speed Precip Events Conditions
12:32 AM 35.6 °F 31.7 °F 30.2 °F 81% 29.75 in 10.0 mi Variable 4.6 mph - N/A   Mostly Cloudy
12:54 AM 35.1 °F - 30.9 °F 85% 29.75 in 10.0 mi Calm Calm - N/A   Mostly Cloudy
1:54 AM 32.0 °F 25.6 °F 30.0 °F 92% 29.74 in 10.0 mi WNW 6.9 mph - N/A   Mostly Cloudy
2:04 AM 32.0 °F 28.7 °F 30.2 °F 93% 29.73 in 10.0 mi NW 3.5 mph - N/A   Scattered Clouds
2:51 AM 32.0 °F 24.2 °F 30.2 °F 93% 29.73 in 10.0 mi WNW 9.2 mph - N/A   Mostly Cloudy
3:12 AM 30.2 °F 21.9 °F 28.4 °F 93% 29.73 in 10.0 mi WNW 9.2 mph - N/A   Partly Cloudy
3:54 AM 30.0 °F 21.1 °F 28.9 °F 96% 29.73 in 10.0 mi WNW 10.4 mph - N/A   Clear
4:54 AM 30.9 °F 22.8 °F 28.0 °F 89% 29.74 in 10.0 mi WNW 9.2 mph - N/A   Scattered Clouds
5:54 AM 30.0 °F 21.1 °F 27.0 °F 88% 29.74 in 10.0 mi WNW 10.4 mph - N/A   Partly Cloudy
6:54 AM 28.9 °F 17.7 °F 26.1 °F 89% 29.75 in 10.0 mi WNW 15.0 mph - N/A   Overcast
7:54 AM 28.9 °F 19.2 °F 25.0 °F 85% 29.77 in 10.0 mi WNW 11.5 mph - N/A   Mostly Cloudy
8:54 AM 28.9 °F 19.2 °F 24.1 °F 82% 29.78 in 10.0 mi WNW 11.5 mph - N/A   Clear
9:54 AM 30.9 °F 20.7 °F 21.9 °F 69% 29.81 in 10.0 mi WNW 13.8 mph - N/A   Clear
10:54 AM 32.0 °F 21.6 °F 21.9 °F 66% 29.83 in 10.0 mi WNW 15.0 mph - N/A   Clear
11:54 AM 33.1 °F 23.9 °F 19.9 °F 59% 29.84 in 10.0 mi NW 12.7 mph - N/A   Clear
12:54 PM 34.0 °F 25.5 °F 19.0 °F 54% 29.85 in 10.0 mi WNW 11.5 mph - N/A   Clear
1:54 PM 35.1 °F 26.9 °F 17.1 °F 48% 29.88 in 10.0 mi NW 11.5 mph - N/A   Clear
2:54 PM 34.0 °F 25.5 °F 16.0 °F 48% 29.90 in 10.0 mi WNW 11.5 mph - N/A   Clear
3:54 PM 33.1 °F 27.7 °F 15.1 °F 48% 29.93 in 10.0 mi NW 5.8 mph - N/A   Clear
4:54 PM 32.0 °F 24.8 °F 17.1 °F 54% 29.96 in 10.0 mi NW 8.1 mph - N/A   Clear
5:54 PM 28.0 °F - 19.9 °F 72% 29.99 in 10.0 mi Calm Calm - N/A   Clear
6:54 PM 28.0 °F - 19.9 °F 72% 30.01 in 10.0 mi Calm Calm - N/A   Clear
7:54 PM 26.1 °F - 21.9 °F 84% 30.04 in 10.0 mi Calm Calm - N/A   Clear
8:54 PM 26.1 °F 18.4 °F 21.0 °F 81% 30.06 in 10.0 mi WNW 6.9 mph - N/A   Scattered Clouds
9:54 PM 26.1 °F 16.2 °F 19.9 °F 78% 30.08 in 10.0 mi WNW 10.4 mph - N/A   Partly Cloudy
10:54 PM 25.0 °F 13.6 °F 19.0 °F 78% 30.10 in 10.0 mi WNW 12.7 mph - N/A   Clear
11:54 PM 26.1 °F 15.0 °F 19.0 °F 75% 30.12 in 10.0 mi WNW 12.7 mph - N/A   Scattered Clouds